EW6167 Weather Reports


Display with metric or nautical units.
time (UTC)temp
F
wind
direction
speed
MPH
gust
MPH
rain 1hr
in
rain 24hr
in
rain mn
in
humidity
%
barometer
mb
20260901181527 69 159 13.0 0.0 0.00 0.00 0.00 38 1006.2
20260901181038 69 167 13.0 0.0 0.00 0.00 0.00 39 1006.3
20260901180549 68 169 14.0 0.0 0.00 0.00 0.00 41 1006.3
20260901175515 67 205 13.0 0.0 0.00 0.00 0.00 41 1006.6
20260901175036 66 196 13.0 0.0 0.00 0.00 0.00 41 1006.7
20260901174557 66 192 13.0 0.0 0.00 0.00 0.00 42 1006.7
20260901174106 67 194 13.0 0.0 0.00 0.00 0.00 43 1006.7
20260901173515 67 182 13.0 0.0 0.00 0.00 0.00 43 1006.7
20260901173035 67 187 14.0 0.0 0.00 0.00 0.00 44 1006.7
20260901172548 67 188 13.0 0.0 0.00 0.00 0.00 44 1006.6
20260901172059 67 203 13.0 0.0 0.00 0.00 0.00 46 1006.6
20260901171506 65 189 13.0 0.0 0.00 0.00 0.00 47 1006.6
20260901171013 64 178 14.0 0.0 0.00 0.00 0.00 49 1006.6
20260901170538 64 190 13.0 0.0 0.00 0.00 0.00 50 1006.6
20260901170056 64 218 14.0 0.0 0.00 0.00 0.00 50 1006.6
20260901165502 63 207 15.0 0.0 0.00 0.00 0.00 52 1006.6
20260901165021 62 186 16.0 0.0 0.00 0.00 0.00 55 1006.6
20260901164547 62 217 14.0 0.0 0.00 0.00 0.00 55 1006.6
20260901164050 62 206 14.0 0.0 0.00 0.00 0.00 56 1006.5
20260901163559 61 133 14.0 0.0 0.00 0.00 0.00 57 1006.5
20260901163006 61 202 15.0 0.0 0.00 0.00 0.00 57 1006.4
20260901162516 61 171 16.0 0.0 0.00 0.00 0.00 59 1006.4
20260901162035 60 200 16.0 0.0 0.00 0.00 0.00 59 1006.4
20260901161551 60 188 15.0 0.0 0.00 0.00 0.00 60 1006.4
20260901161058 60 214 14.0 0.0 0.00 0.00 0.00 61 1006.4
20260901160508 60 171 14.0 0.0 0.00 0.00 0.00 62 1006.6
20260901160017 60 190 14.0 0.0 0.00 0.00 0.00 61 1006.6
20260901155541 60 173 14.0 0.0 0.00 0.00 0.00 61 1006.7
20260901155057 60 196 13.0 0.0 0.00 0.00 0.00 61 1006.8
20260901154502 60 186 15.0 0.0 0.00 0.00 0.00 61 1006.7
20260901154014 60 130 16.0 0.0 0.00 0.00 0.00 62 1006.9
20260901153524 60 142 15.0 0.0 0.00 0.00 0.00 63 1006.8
20260901153046 59 178 16.0 0.0 0.00 0.00 0.00 63 1006.9
20260901152546 59 135 17.0 0.0 0.00 0.00 0.00 63 1006.9
20260901152008 59 178 18.0 0.0 0.00 0.00 0.00 61 1006.9
20260901151524 59 151 18.0 0.0 0.00 0.00 0.00 61 1006.9
20260901151034 59 154 18.0 0.0 0.00 0.00 0.00 61 1006.9
20260901150545 59 116 18.0 0.0 0.00 0.00 0.00 60 1006.9
20260901150009 60 127 15.0 0.0 0.00 0.00 0.00 59 1006.9
20260901145530 60 157 13.0 0.0 0.00 0.00 0.00 59 1006.9
20260901145042 60 133 13.0 0.0 0.00 0.00 0.00 59 1007.0
20260901144556 60 175 13.0 0.0 0.00 0.00 0.00 59 1007.0
20260901144023 60 155 13.0 0.0 0.00 0.00 0.00 59 1006.9
20260901143532 60 188 12.0 0.0 0.00 0.00 0.00 59 1006.8
20260901143047 59 167 11.0 0.0 0.00 0.00 0.00 58 1007.0
20260901142601 59 151 12.0 0.0 0.00 0.00 0.00 59 1007.0
20260901142022 59 153 15.0 0.0 0.00 0.00 0.00 60 1006.8
20260901141529 59 163 14.0 0.0 0.00 0.00 0.00 60 1006.8
20260901141037 59 178 12.0 0.0 0.00 0.00 0.00 59 1006.8
20260901140550 60 167 11.0 0.0 0.00 0.00 0.00 56 1006.8
20260901140014 59 160 13.0 0.0 0.00 0.00 0.00 57 1006.7
20260901135524 59 193 15.0 0.0 0.00 0.00 0.00 58 1006.6
20260901135033 59 198 15.0 0.0 0.00 0.00 0.00 59 1006.7
20260901134543 59 197 14.0 0.0 0.00 0.00 0.00 61 1006.7
20260901134002 59 214 16.0 0.0 0.00 0.00 0.00 63 1006.9
20260901133521 59 182 18.0 0.0 0.00 0.00 0.00 62 1006.8
20260901133038 59 180 17.0 0.0 0.00 0.00 0.00 62 1006.8
20260901132548 59 178 16.0 0.0 0.00 0.00 0.00 60 1006.7
20260901132017 60 179 13.0 0.0 0.00 0.00 0.00 61 1006.7
20260901131526 61 200 11.0 0.0 0.00 0.00 0.00 55 1006.6
20260901131039 60 190 12.0 0.0 0.00 0.00 0.00 56 1006.4
20260901130546 60 188 14.0 0.0 0.00 0.00 0.00 57 1006.4
20260901130008 60 178 16.0 0.0 0.00 0.00 0.00 59 1006.7
20260901125521 60 161 18.0 0.0 0.00 0.00 0.00 59 1006.7
20260901125027 60 193 17.0 0.0 0.00 0.00 0.00 59 1006.8
20260901124539 60 142 16.0 0.0 0.00 0.00 0.00 59 1006.9
20260901124047 60 170 16.0 0.0 0.00 0.00 0.00 59 1006.8
20260901123559 60 192 17.0 0.0 0.00 0.00 0.00 59 1006.8
20260901123021 60 190 15.0 0.0 0.00 0.00 0.00 59 1006.8
20260901122533 60 187 16.0 0.0 0.00 0.00 0.00 59 1006.8
20260901122051 60 134 18.0 0.0 0.00 0.00 0.00 59 1006.7
20260901121606 60 130 17.0 0.0 0.00 0.00 0.00 59 1006.7
20260901121029 60 163 15.0 0.0 0.00 0.00 0.00 58 1006.8
20260901120551 60 148 16.0 0.0 0.00 0.00 0.00 58 1006.8
20260901120001 60 132 15.0 0.0 0.00 0.00 0.00 58 1006.6
20260901115510 61 162 14.0 0.0 0.00 0.00 0.00 57 1006.7
20260901115023 61 177 13.0 0.0 0.00 0.00 0.00 57 1006.8
20260901114542 61 123 13.0 0.0 0.00 0.00 0.00 57 1006.7
20260901114050 61 184 13.0 0.0 0.00 0.00 0.00 56 1006.7
20260901113502 61 165 14.0 0.0 0.00 0.00 0.00 56 1006.6
20260901113001 61 164 14.0 0.0 0.00 0.00 0.00 56 1006.6
20260901112513 61 169 14.0 0.0 0.00 0.00 0.00 56 1006.6
20260901112020 61 150 14.0 0.0 0.00 0.00 0.00 56 1006.7
20260901111531 61 139 14.0 0.0 0.00 0.00 0.00 56 1006.8
20260901111045 61 148 14.0 0.0 0.00 0.00 0.00 56 1006.7
20260901110505 61 184 15.0 0.0 0.00 0.00 0.00 55 1006.8
20260901110024 61 172 15.0 0.0 0.00 0.00 0.00 55 1006.8
20260901105540 61 180 15.0 0.0 0.00 0.00 0.00 55 1006.9
20260901105051 61 190 14.0 0.0 0.00 0.00 0.00 55 1006.8
20260901104504 62 140 14.0 0.0 0.00 0.00 0.00 54 1006.9
20260901104019 62 154 13.0 0.0 0.00 0.00 0.00 54 1006.8
20260901103538 62 160 13.0 0.0 0.00 0.00 0.00 53 1007.0
20260901103053 62 170 15.0 0.0 0.00 0.00 0.00 53 1006.9
20260901102601 63 135 17.0 0.0 0.00 0.00 0.00 51 1007.0
20260901102020 63 157 18.0 0.0 0.00 0.00 0.00 51 1006.9
20260901101542 63 139 17.0 0.0 0.00 0.00 0.00 51 1007.1
20260901101053 63 140 17.0 0.0 0.00 0.00 0.00 51 1007.0
20260901100502 63 140 16.0 0.0 0.00 0.00 0.00 51 1007.2
20260901100024 63 173 14.0 0.0 0.00 0.00 0.00 51 1007.2
20260901095536 63 185 12.0 0.0 0.00 0.00 0.00 52 1007.2
20260901095052 63 144 12.0 0.0 0.00 0.00 0.00 51 1007.3
20260901094602 63 159 11.0 0.0 0.00 0.00 0.00 52 1007.5
20260901094019 62 142 10.0 0.0 0.00 0.00 0.00 51 1007.5
20260901093534 63 156 10.0 0.0 0.00 0.00 0.00 51 1007.5
20260901093047 62 182 11.0 0.0 0.00 0.00 0.00 51 1007.6
20260901092505 63 139 11.0 0.0 0.00 0.00 0.00 50 1007.7
20260901092016 63 194 12.0 0.0 0.00 0.00 0.00 50 1007.7
20260901091532 62 131 11.0 0.0 0.00 0.00 0.00 49 1007.8
20260901091037 62 146 11.0 0.0 0.00 0.00 0.00 49 1007.9
20260901090502 62 132 11.0 0.0 0.00 0.00 0.00 49 1007.9
20260901090013 63 173 12.0 0.0 0.00 0.00 0.00 48 1008.1
20260901085529 63 146 12.0 0.0 0.00 0.00 0.00 48 1008.1
20260901085047 63 186 12.0 0.0 0.00 0.00 0.00 47 1008.1
20260901084601 63 167 11.0 0.0 0.00 0.00 0.00 47 1008.1
20260901084021 63 148 11.0 0.0 0.00 0.00 0.00 46 1008.2
20260901083535 63 169 12.0 0.0 0.00 0.00 0.00 46 1008.2
20260901083050 64 148 12.0 0.0 0.00 0.00 0.00 46 1008.3
20260901082557 64 120 12.0 0.0 0.00 0.00 0.00 44 1008.3
20260901082002 64 148 15.0 0.0 0.00 0.00 0.00 43 1008.4
20260901081519 64 180 17.0 0.0 0.00 0.00 0.00 42 1008.4
20260901081039 65 142 17.0 0.0 0.00 0.00 0.00 41 1008.4
20260901080551 65 145 17.0 0.0 0.00 0.00 0.00 40 1008.6
20260901080105 65 150 17.0 0.0 0.00 0.00 0.00 39 1008.6
20260901075509 64 139 18.0 0.0 0.00 0.00 0.00 37 1008.6
20260901075017 64 133 19.0 0.0 0.00 0.00 0.00 36 1008.6
20260901074544 63 134 19.0 0.0 0.00 0.00 0.00 35 1008.6
20260901074038 63 112 16.0 0.0 0.00 0.00 0.00 32 1008.4
20260901073555 61 121 15.0 0.0 0.00 0.00 0.00 34 1008.5
20260901073106 61 144 13.0 0.0 0.00 0.00 0.00 34 1008.5
20260901072508 60 122 9.0 0.0 0.00 0.00 0.00 36 1008.5
20260901072029 59 165 7.0 0.0 0.00 0.00 0.00 37 1008.6
20260901071545 56 184 6.0 0.0 0.00 0.00 0.00 40 1008.6
20260901071007 54 186 6.0 0.0 0.00 0.00 0.00 47 1008.8
20260901070527 55 221 7.0 0.0 0.00 0.00 0.00 47 1008.7
20260901070040 55 225 7.0 0.0 0.00 0.00 0.00 44 1008.7
20260901065601 56 238 6.0 0.0 0.00 0.00 0.00 44 1008.7
20260901065002 56 207 5.0 0.0 0.00 0.00 0.00 39 1008.8
20260901064530 56 193 7.0 0.0 0.00 0.00 0.00 42 1008.8
20260901064043 55 176 8.0 0.0 0.00 0.00 0.00 44 1008.7
20260901063556 55 202 8.0 0.0 0.00 0.00 0.00 45 1008.8
20260901063022 55 184 7.0 0.0 0.00 0.00 0.00 45 1008.6
20260901062532 54 186 5.0 0.0 0.00 0.00 0.00 46 1008.5
20260901062048 54 155 4.0 0.0 0.00 0.00 0.00 46 1008.7
20260901061556 55 152 5.0 0.0 0.00 0.00 0.00 46 1008.7
20260901061014 55 165 7.0 0.0 0.00 0.00 0.00 45 1008.8
20260901060523 55 159 8.0 0.0 0.00 0.00 0.00 44 1009.0
20260901060033 55 172 8.0 0.0 0.00 0.00 0.00 44 1009.1
20260901055540 55 199 8.0 0.0 0.00 0.00 0.00 45 1008.9
20260901055054 55 202 9.0 0.0 0.00 0.00 0.00 44 1008.9
20260901054603 55 188 8.0 0.0 0.00 0.00 0.00 44 1008.9
20260901054026 55 179 7.0 0.0 0.00 0.00 0.00 45 1008.9
20260901053540 55 194 8.0 0.0 0.00 0.00 0.00 44 1009.0
20260901053112 55 161 7.0 0.0 0.00 0.00 0.00 44 1008.9
20260901052507 55 192 7.0 0.0 0.00 0.00 0.00 44 1009.0
20260901052033 55 186 7.0 0.0 0.00 0.00 0.00 44 1009.1
20260901051610 55 179 7.0 0.0 0.00 0.00 0.00 44 1009.2
20260901051016 56 190 7.0 0.0 0.00 0.00 0.00 43 1009.2
20260901050526 56 188 7.0 0.0 0.00 0.00 0.00 43 1009.1
20260901050037 54 175 6.0 0.0 0.00 0.00 0.00 44 1009.3
20260901045559 54 168 4.0 0.0 0.00 0.00 0.00 46 1009.4
20260901045000 54 138 3.0 0.0 0.00 0.00 0.00 45 1009.3
20260901044523 54 202 2.0 0.0 0.00 0.00 0.00 45 1009.2
20260901044035 54 202 2.0 0.0 0.00 0.00 0.00 43 1009.2
20260901043552 55 202 2.0 0.0 0.00 0.00 0.00 43 1009.3
20260901043107 55 202 3.0 0.0 0.00 0.00 0.00 44 1009.3
20260901042512 55 228 4.0 0.0 0.00 0.00 0.00 44 1009.3
20260901042035 56 231 5.0 0.0 0.00 0.00 0.00 45 1009.2
20260901041601 56 228 6.0 0.0 0.00 0.00 0.00 44 1009.2
20260901041103 57 243 6.0 0.0 0.00 0.00 0.00 42 1009.3
20260901040519 58 250 5.0 0.0 0.00 0.00 0.00 38 1009.4
20260901040035 59 240 5.0 0.0 0.00 0.00 0.00 37 1009.3
20260901035556 59 256 6.0 0.0 0.00 0.00 0.00 36 1009.4
20260901035006 60 260 5.0 0.0 0.00 0.00 0.00 35 1009.3
20260901034517 61 266 4.0 0.0 0.00 0.00 0.00 34 1009.2
20260901034035 61 250 3.0 0.0 0.00 0.00 0.00 31 1009.3
20260901033559 61 208 4.0 0.0 0.00 0.00 0.00 30 1009.3
20260901033008 61 237 5.0 0.0 0.00 0.00 0.00 32 1009.2
20260901032518 60 238 6.0 0.0 0.00 0.00 0.00 32 1009.2
20260901032040 60 241 5.0 0.0 0.00 0.00 0.00 32 1009.3
20260901031607 60 249 4.0 0.0 0.00 0.00 0.00 30 1009.4
20260901031010 62 196 3.0 0.0 0.00 0.00 0.00 28 1009.2
20260901030531 63 199 4.0 0.0 0.00 0.00 0.00 27 1009.2
20260901030047 64 179 5.0 0.0 0.00 0.00 0.00 26 1009.0
20260901025556 64 155 6.0 0.0 0.00 0.00 0.00 25 1009.1
20260901025005 65 161 6.0 0.0 0.00 0.00 0.00 25 1009.0
20260901024524 65 148 7.0 0.0 0.00 0.00 0.00 24 1008.9
20260901024044 65 158 8.0 0.0 0.00 0.00 0.00 24 1008.6
20260901023552 65 157 8.0 0.0 0.00 0.00 0.00 24 1008.6
20260901023010 65 138 8.0 0.0 0.00 0.00 0.00 24 1008.4
20260901022537 65 156 7.0 0.0 0.00 0.00 0.00 24 1008.4
20260901022101 65 155 6.0 0.0 0.00 0.00 0.00 25 1008.5
20260901021516 65 163 7.0 0.0 0.00 0.00 0.00 24 1008.4
20260901021038 65 138 6.0 0.0 0.00 0.00 0.00 25 1008.4
20260901020547 65 161 5.0 0.0 0.00 0.00 0.00 25 1008.5
20260901015511 66 167 6.0 0.0 0.00 0.00 0.00 25 1008.5
20260901015033 67 128 6.0 0.0 0.00 0.00 0.00 25 1008.7
20260901014547 68 153 6.0 0.0 0.00 0.00 0.00 23 1008.7
20260901014001 69 140 6.0 0.0 0.00 0.00 0.00 20 1008.6
20260901013519 70 162 6.0 0.0 0.00 0.00 0.00 19 1008.5
20260901013032 71 175 8.0 0.0 0.00 0.00 0.00 19 1008.5
20260901012550 72 175 9.0 0.0 0.00 0.00 0.00 18 1008.5
20260901012057 72 176 8.0 0.0 0.00 0.00 0.00 17 1008.5
20260901011503 73 148 8.0 0.0 0.00 0.00 0.00 17 1008.5
20260901011015 74 159 9.0 0.0 0.00 0.00 0.00 16 1008.5
20260901010539 74 167 10.0 0.0 0.00 0.00 0.00 16 1008.4
20260901010057 75 130 10.0 0.0 0.00 0.00 0.00 15 1008.2
20260901005515 76 126 9.0 0.0 0.00 0.00 0.00 14 1008.1
20260901005025 76 112 9.0 0.0 0.00 0.00 0.00 14 1008.2
20260901004535 76 133 8.0 0.0 0.00 0.00 0.00 13 1008.2
20260901004044 76 124 8.0 0.0 0.00 0.00 0.00 14 1008.2
20260901003509 76 107 10.0 0.0 0.00 0.00 0.00 14 1008.4
20260901003016 76 144 11.0 0.0 0.00 0.00 0.00 13 1008.4
20260901002532 76 150 10.0 0.0 0.00 0.00 0.00 13 1008.4
20260901002043 76 116 11.0 0.0 0.00 0.00 0.00 13 1008.3
20260901001559 76 132 11.0 0.0 0.00 0.00 0.00 13 1008.4
20260901001004 77 153 11.0 0.0 0.00 0.00 0.00 13 1008.4
20260901000513 77 175 11.0 0.0 0.00 0.00 0.00 13 1008.4
20260901000036 77 129 10.0 0.0 0.00 0.00 0.00 13 1008.3
20260831235534 77 163 10.0 0.0 0.00 0.00 0.00 13 1008.4
20260831235049 77 123 11.0 0.0 0.00 0.00 0.00 13 1008.4
20260831234612 77 145 11.0 0.0 0.00 0.00 0.00 12 1008.6
20260831234003 77 135 12.0 0.0 0.00 0.00 0.00 12 1008.8
20260831233523 77 137 12.0 0.0 0.00 0.00 0.00 12 1008.8
20260831233036 77 119 12.0 0.0 0.00 0.00 0.00 12 1008.8
20260831232548 77 171 11.0 0.0 0.00 0.00 0.00 12 1009.0
20260831232058 77 175 10.0 0.0 0.00 0.00 0.00 11 1009.0
20260831231502 77 129 9.0 0.0 0.00 0.00 0.00 12 1009.1
20260831231027 77 190 10.0 0.0 0.00 0.00 0.00 11 1009.1
20260831230539 77 126 10.0 0.0 0.00 0.00 0.00 12 1009.0
20260831230055 77 180 9.0 0.0 0.00 0.00 0.00 12 1009.1
20260831225501 77 154 11.0 0.0 0.00 0.00 0.00 11 1009.4
20260831225019 77 124 11.0 0.0 0.00 0.00 0.00 11 1009.3
20260831224541 77 182 12.0 0.0 0.00 0.00 0.00 11 1009.3
20260831224001 77 161 11.0 0.0 0.00 0.00 0.00 12 1009.3
20260831223523 77 146 11.0 0.0 0.00 0.00 0.00 12 1009.4
20260831223033 77 110 12.0 0.0 0.00 0.00 0.00 13 1009.4
20260831222548 77 182 11.0 0.0 0.00 0.00 0.00 12 1009.4
20260831222053 77 132 12.0 0.0 0.00 0.00 0.00 12 1009.6
20260831221512 77 148 13.0 0.0 0.00 0.00 0.00 13 1009.8
20260831221030 77 117 12.0 0.0 0.00 0.00 0.00 13 1009.8
20260831220552 77 132 12.0 0.0 0.00 0.00 0.00 13 1009.8
20260831220059 76 167 12.0 0.0 0.00 0.00 0.00 14 1009.8
20260831215513 77 159 13.0 0.0 0.00 0.00 0.00 14 1010.0
20260831215026 76 159 14.0 0.0 0.00 0.00 0.00 14 1009.8
20260831214535 76 171 15.0 0.0 0.00 0.00 0.00 14 1009.9
20260831214048 76 178 14.0 0.0 0.00 0.00 0.00 14 1009.9
20260831213504 76 157 14.0 0.0 0.00 0.00 0.00 14 1010.1
20260831213018 76 184 14.0 0.0 0.00 0.00 0.00 15 1010.1
20260831212540 76 140 14.0 0.0 0.00 0.00 0.00 15 1010.1
20260831212057 76 154 14.0 0.0 0.00 0.00 0.00 15 1010.2
20260831211502 76 180 14.0 0.0 0.00 0.00 0.00 16 1010.3
20260831211008 76 123 15.0 0.0 0.00 0.00 0.00 16 1010.3
20260831210532 75 198 16.0 0.0 0.00 0.00 0.00 16 1010.4
20260831210052 75 111 14.0 0.0 0.00 0.00 0.00 16 1010.4
20260831205502 75 150 15.0 0.0 0.00 0.00 0.00 17 1010.6
20260831205027 75 133 16.0 0.0 0.00 0.00 0.00 17 1010.5
20260831204543 75 135 15.0 0.0 0.00 0.00 0.00 17 1010.6
20260831204007 75 130 16.0 0.0 0.00 0.00 0.00 16 1010.6
20260831203518 75 114 16.0 0.0 0.00 0.00 0.00 17 1010.5
20260831203033 75 158 15.0 0.0 0.00 0.00 0.00 17 1010.6
20260831202537 75 184 15.0 0.0 0.00 0.00 0.00 19 1010.8
20260831202050 74 180 15.0 0.0 0.00 0.00 0.00 18 1010.9
20260831201556 74 136 14.0 0.0 0.00 0.00 0.00 18 1010.9
20260831201014 74 137 14.0 0.0 0.00 0.00 0.00 18 1010.8
20260831200535 73 107 15.0 0.0 0.00 0.00 0.00 18 1011.1
20260831200044 73 114 15.0 0.0 0.00 0.00 0.00 18 1011.1
20260831195507 73 109 16.0 0.0 0.00 0.00 0.00 19 1011.2
20260831195026 73 98 16.0 0.0 0.00 0.00 0.00 19 1011.2
20260831194537 73 136 15.0 0.0 0.00 0.00 0.00 19 1011.4
20260831194047 73 122 14.0 0.0 0.00 0.00 0.00 18 1011.3
20260831193601 73 126 14.0 0.0 0.00 0.00 0.00 19 1011.3
20260831193012 73 168 14.0 0.0 0.00 0.00 0.00 19 1011.5
20260831192519 73 142 14.0 0.0 0.00 0.00 0.00 19 1011.5
20260831192028 73 178 13.0 0.0 0.00 0.00 0.00 19 1011.7
20260831191536 72 178 12.0 0.0 0.00 0.00 0.00 20 1011.9
20260831191044 72 127 13.0 0.0 0.00 0.00 0.00 21 1011.7
20260831190552 71 122 14.0 0.0 0.00 0.00 0.00 22 1011.8
20260831190008 71 156 13.0 0.0 0.00 0.00 0.00 21 1011.8
20260831185526 71 153 13.0 0.0 0.00 0.00 0.00 21 1012.0
20260831185038 71 121 13.0 0.0 0.00 0.00 0.00 21 1011.9
20260831184552 71 150 13.0 0.0 0.00 0.00 0.00 21 1011.8
20260831184001 70 115 14.0 0.0 0.00 0.00 0.00 20 1011.9
20260831183514 70 171 14.0 0.0 0.00 0.00 0.00 21 1012.2
20260831183034 70 131 15.0 0.0 0.00 0.00 0.00 21 1012.2
20260831182540 69 150 16.0 0.0 0.00 0.00 0.00 21 1012.3
20260831182047 69 170 15.0 0.0 0.00 0.00 0.00 20 1012.3